Regional Weather Roundup
Issued by NWS

Home | Current Version | Previous Version | Graphics & Text | Print | Product List | Glossary On
Versions: 1 2 3 4 5 6 7 8 9 10 11 12 13 14 15 16 17 18 19 20 21 22 23 24 25 26 27 28 29 30 31 32 33 34 35 36 37 38 39 40 41 42 43 44 45 46 47 48 49 50
000
ASUS43 KIND 301909
RWRIN

WEATHER ROUNDUP FOR INDIANA
NATIONAL WEATHER SERVICE INDIANAPOLIS IN
300 PM EDT TUE AUG 30 2016

NOTE: "FAIR" INDICATES FEW OR NO CLOUDS BELOW 12,000 FEET WITH NO
SIGNIFICANT WEATHER AND/OR OBSTRUCTIONS TO VISIBILITY.

* - STATION DOES NOT REPORT WEATHER SUCH AS PRECIPITATION OR FOG.

+ - STATION NOT QUALITY CONTROLLED BY THE NATIONAL WEATHER SERVICE.
    USE DATA WITH CAUTION...ESPECIALLY DEWPOINT AND RELATIVE
    HUMIDITY OBSERVATIONS.

INZ001>003-010>013-019-020-302000-
NORTHWEST INDIANA

CITY           SKY/WX    TMP DP  RH WIND       PRES   REMARKS
KNOX *+        PTSUNNY   79  52  38 CALM      30.10F
LA PORTE +     CLOUDY    81  79  95 S3        30.11F
MICHIGAN CITY+ CLOUDY    79  77  94 MISG      30.10F
MONTICELLO +   PTSUNNY   84  69  60 SW3       30.08F
RENSSELAER +   CLOUDY    81  72  74 W5        30.11S
VALPARAISO     CLOUDY    81  71  71 VRB5      30.11F

$$

LMZ046-743>745-302000-
SOUTHERN LAKE MICHIGAN

STATION/POSITION TIME  TEMP    WIND        PRES    WAVE
                       AIR SEA DIR/SP/G            HT
                 (UTC) (F)     (DEG/KT/KT) (MB)    (FT)
BURNS HARBOR     1808   79     200/  6/ 10 1019.6F
MICHIGAN CITY    1800   76     170/  9/ 10   N/A
5NW MICH CITY    1900   75 71  250/  4/  6   N/A     0

$$

INZ004-005-014>016-021>024-302000-
NORTH CENTRAL INDIANA

CITY           SKY/WX    TMP DP  RH WIND       PRES   REMARKS
ELKHART        SUNNY    N/A N/A N/A CALM      30.10F
GOSHEN         CLOUDY    80  70  71 SW3       30.11F
LOGANSPORT +   MOSUNNY   82  72  69 CALM      30.10F
PERU/GRISSOM   MOSUNNY   86  72  63 VRB3      30.09F
ROCHESTER +    MOSUNNY   86  73  66 S5        30.10F
SOUTH BEND     CLOUDY    80  72  76 SE5       30.10F
WARSAW +       CLOUDY    81  73  78 N3        30.11F

$$

INZ006>009-017-018-025>027-302000-
NORTHEAST INDIANA

CITY           SKY/WX    TMP DP  RH WIND       PRES   REMARKS
ANGOLA *+      MOSUNNY   84  73  70 W5        30.12F
AUBURN +       PTSUNNY   84  66  54 CALM      30.12F
FORT WAYNE     PTSUNNY   85  68  56 CALM      30.11F
HUNTINGTON +   MOSUNNY   84  71  64 S7        30.10F

$$

INZ028-029-035-036-043>045-051>053-302000-
WEST CENTRAL INDIANA

CITY           SKY/WX    TMP DP  RH WIND       PRES   REMARKS
CRAWFORDSVL +  CLOUDY    84  74  73 SW3       30.10F
GREENCASTLE +  MOSUNNY   88  75  66 CALM      30.11F HX  97
LAFAYETTE      CLOUDY    86  72  62 VRB5      30.08F
TERRE HAUTE    PTSUNNY   89  70  53 SE5       30.09F

$$

INZ030>032-037>040-046>048-054>057-064-065-302000-
CENTRAL INDIANA

CITY           SKY/WX    TMP DP  RH WIND       PRES   REMARKS
ANDERSON       MOSUNNY   86  70  58 S6        30.12F
COLUMBUS       MOSUNNY   88  72  58 E6        30.12F
INDIANAPOLIS   PTSUNNY   87  69  54 CALM      30.10F
-EAGLE CREEK   SUNNY     88  69  53 S3        30.10F
KOKOMO *+      MOSUNNY   82  73  74 SE6       30.10F
MARION +       PTSUNNY   85  69  60 S7        30.11F
MT COMFORT *+  MOSUNNY   86  72  62 SE3       30.12F
SHELBYVILLE    MOSUNNY   88  69  53 CALM      30.11F
ZIONSVILLE +   MOSUNNY   85  71  63 W3        30.12F

$$

INZ033-034-041-042-049-050-058-059-302000-
EAST CENTRAL INDIANA

CITY           SKY/WX    TMP DP  RH WIND       PRES   REMARKS
MUNCIE         PTSUNNY   87  72  60 NE6       30.12F

$$

INZ060-061-067>069-081>083-085>088-302000-
SOUTHWEST INDIANA

CITY           SKY/WX    TMP DP  RH WIND       PRES   REMARKS
EVANSVILLE     MOSUNNY   92  71  50 VRB3      30.08F HX  98
HUNTINGBURG *+ MOSUNNY   90  70  51 N3        30.10S HX  95
WASHINGTON +   CLOUDY    87  71  59 MISG      30.09F

$$

INZ062-063-066-070>080-084-089>092-302000-
SOUTH CENTRAL AND SOUTHEAST INDIANA

CITY           SKY/WX    TMP DP  RH WIND       PRES   REMARKS
BLOOMINGTON    MOSUNNY   89  70  53 SW3       30.11F
MADISON *+     SUNNY     88  64  45 CALM      30.13F

$$





USA.gov is the U.S. government's official web portal to all federal, state and local government web resources and services.